Location: Unspecified
(38.0989°N, 0.6729°W)
Time: 22:21:12
(UTC+01:00)

Envisat - Visible Passes

Search period start: 21 February 2017 00:00
Search period end: 03 March 2017 00:00
Orbit: 764 x 766 km, 98.2° (Epoch: 21 February)

Date Brightness Start Highest point End Pass type
(mag) Time Alt. Az. Time Alt. Az. Time Alt. Az.
21 Feb 4.4 20:29:35 23° NE 20:29:35 23° NE 20:32:06 10° N visible
21 Feb 5.5 22:09:47 17° NW 22:09:47 17° NW 22:11:12 10° NW visible
22 Feb 4.8 19:52:18 13° NE 19:52:18 13° NE 19:53:47 10° NE visible
22 Feb 4.5 21:32:30 29° NNW 21:32:30 29° NNW 21:34:59 10° NNW visible
23 Feb 4.0 20:55:12 32° NNE 20:55:12 32° NNE 20:58:10 10° N visible
23 Feb 5.9 22:35:24 12° NW 22:35:24 12° NW 22:35:52 10° NW visible
24 Feb 4.3 20:17:55 21° NE 20:17:55 21° NE 20:20:45 10° NNE visible
24 Feb 5.0 21:58:07 24° NW 21:58:07 24° NW 22:00:22 10° NNW visible
25 Feb 4.9 19:40:37 10° ENE 19:40:38 10° ENE 19:40:57 10° ENE visible
25 Feb 4.0 21:20:49 39° NNW 21:20:49 39° NNW 21:23:57 10° NNW visible
26 Feb 3.8 20:43:32 33° NE 20:43:32 33° NE 20:46:58 10° N visible
26 Feb 5.6 22:23:44 16° WNW 22:23:44 16° WNW 22:25:19 10° NW visible
27 Feb 4.4 20:06:15 18° ENE 20:06:15 18° ENE 20:09:16 10° NNE visible
27 Feb 4.5 21:46:27 33° NW 21:46:27 33° NW 21:49:27 10° NNW visible
28 Feb 3.5 21:09:09 47° N 21:09:09 47° N 21:12:52 10° N visible
01 Mar 3.9 20:31:53 30° NE 20:31:53 30° NE 20:35:43 10° N visible
01 Mar 5.1 22:12:04 23° WNW 22:12:04 23° WNW 22:14:37 10° NW visible
02 Mar 4.6 19:54:36 14° ENE 19:55:00 14° ENE 19:57:38 10° NNE visible
02 Mar 3.8 21:34:48 46° NW 21:34:48 46° NW 21:38:29 10° NNW visible
